Content
SEND FEEDBACK

Daily
Averages
Monthly
Summary
United States of America

NEW YORK - CENTRAL PARK, NEW YORK


Home > North America > United States > New York
Elevation: 14 feet     Latitude: 40 47N     Longitude: 073 58W

WEATHER
 
SELECT A DAY
Number of Records: 153,019;   Date Range: 11/1/95 - 12/19/14
 
SHARE

PRINT THIS DATA

[ ← Previous Day ]
WEATHER ALMANAC - DECEMBER 7, 2013
[ Next Day → ]
[ °C ]   °F
Weather ElementAverageHighLow
Temperature37.1 °F41 °F (12:51 pm)32 °F (11:51 pm)
Dewpoint25.5 °F33.1 °F (1:51 am)14 °F (10:51 pm)
Humidity65.2 %89 % (1:51 am)41 % (3:51 pm)
Barometer30.30 in30.51 in (10:51 pm)30.11 in (1:51 am)
Wind Speed5.9 mph10.4 mph (2:36 am)
Wind Gust19.6 mph (1:51 pm)
Weather ElementAverage
Visibility9.3 mi
Wind DirectionENE (67.6 °)

Weather ElementTotal
Precipitation0.03 in
Heating Degree Days28.5 (Base 65)
Averaged from 33 records on December 7, 2013
WEATHER CONDITIONS BREAKOUT
WIND DIRECTION BREAKOUT
WEATHER BY HOUR - DECEMBER 7, 2013
[ °C ]   °F
Local TimeTemperatureDewpointHumidityBarometerVisibilityWind DirectionWind SpeedGust SpeedPrecipitationEventsConditions
1:17 AM37.0 °F32.0 °F82 %30.12 in10.0 miVariable6.9 mph0.01 inOvercast
1:51 AM36.0 °F33.1 °F89 %30.11 in10.0 miVariable5.8 mph0.01 inOvercast
2:36 AM36.0 °F32.0 °F86 %30.19 in4.0 miNorth (350°)10.4 mphOvercast
2:51 AM36.0 °F32.0 °F86 %30.19 in3.0 miVariable3.5 mph0.01 inOvercast
3:14 AM36.0 °F32.0 °F86 %30.19 in4.0 miNNE (20°)5.8 mph0.00 inOvercast
3:30 AM36.0 °F33.1 °F89 %30.19 in6.0 miNNE (20°)9.2 mph0.00 inOvercast
3:51 AM36.0 °F32.0 °F86 %30.17 in10.0 miNorth0.00 inOvercast
4:05 AM36.0 °F32.0 °F86 %30.19 in10.0 miVariable3.5 mphOvercast
4:51 AM36.0 °F32.0 °F86 %30.19 in10.0 miCalmOvercast
5:24 AM36.0 °F32.0 °F86 %30.22 in10.0 miCalmOvercast
5:51 AM36.0 °F30.9 °F82 %30.21 in10.0 miVariable5.8 mphOvercast
6:51 AM37.0 °F30.9 °F79 %30.24 in10.0 miVariable3.5 mphOvercast
7:34 AM37.0 °F30.0 °F76 %30.27 in10.0 miVariable4.6 mphMostly Cloudy
7:51 AM37.0 °F30.0 °F76 %30.26 in10.0 miVariable3.5 mphScattered Clouds
8:51 AM37.0 °F28.9 °F73 %30.29 in10.0 miNorthClear
9:51 AM37.9 °F27.0 °F65 %30.31 in10.0 miVariable6.9 mphClear
10:51 AM39.9 °F27.0 °F60 %30.31 in10.0 miVariable5.8 mphMostly Cloudy
11:15 AM39.9 °F26.1 °F58 %30.33 in10.0 miVariable6.9 mphScattered Clouds
11:51 AM39.0 °F26.1 °F60 %30.31 in10.0 miVariable5.8 mphScattered Clouds
12:08 PM39.9 °F26.1 °F58 %30.33 in10.0 miNorthMostly Cloudy
12:24 PM39.9 °F25.0 °F55 %30.33 in10.0 miVariable4.6 mphMostly Cloudy
12:51 PM41.0 °F25.0 °F53 %30.31 in10.0 miVariable6.9 mphMostly Cloudy
1:51 PM39.9 °F23.0 °F51 %30.31 in10.0 miVariable6.9 mph19.6 mphPartly Cloudy
2:51 PM39.9 °F19.9 °F45 %30.32 in10.0 miWNW (300°)8.1 mphClear
3:51 PM39.0 °F17.1 °F41 %30.34 in10.0 miVariable6.9 mphClear
4:51 PM37.9 °F18.0 °F45 %30.37 in10.0 miVariable5.8 mphClear
5:51 PM37.9 °F18.0 °F45 %30.40 in10.0 miNW (310°)8.1 mphClear
6:51 PM37.0 °F16.0 °F42 %30.42 in10.0 miNW (310°)6.9 mphClear
7:51 PM36.0 °F15.1 °F43 %30.45 in10.0 miWNW (300°)9.2 mphClear
8:51 PM35.1 °F15.1 °F44 %30.48 in10.0 miWNW (300°)8.1 mphClear
9:51 PM34.0 °F15.1 °F46 %30.49 in10.0 miVariable4.6 mphClear
10:51 PM33.1 °F14.0 °F46 %30.51 in10.0 miVariable6.9 mphClear
11:51 PM32.0 °F14.0 °F48 %30.51 in10.0 miNW (320°)5.8 mphClear
Hourly data recorded from KNYC, located miles away from New York - Central Park, New York







STORIES FROM OUR PARTNERS